Location: Andechy
(49.7144°N, 2.7089°E)
Time: 23:52:35
(UTC+00:00)

Daily predictions for brighter satellites

Satellite Brightness Start Highest point End
(mag) Time Altitude Azimuth Time Altitude Azimuth Time Altitude Azimuth
Cosmos 2279 Rocket 4.3 16:18:12 10° SSE 16:24:05 46° E 16:29:58 10° NNE
Cosmos 1570 Rocket 4.0 16:20:45 10° NNW 16:26:07 74° ENE 16:31:25 10° SSE
Cosmos 1092 Rocket 4.1 16:20:46 10° N 16:26:59 87° W 16:33:06 10° S
Cosmos 836 Rocket 4.5 16:24:09 10° NNW 16:29:24 71° ENE 16:34:39 10° SSE
SMAP 3.5 16:26:31 10° SE 16:30:52 41° ENE 16:35:15 10° N
Cosmos 1656 4.1 16:26:04 10° S 16:31:25 47° ESE 16:36:50 10° NE
UNK 4.5 16:28:45 10° NNE 16:32:55 33° E 16:37:00 10° SSE
NOSS 2-2 (C) 2.7 16:31:42 10° SW 16:34:56 83° NW 16:37:56 10° NE
YAOGAN 1 4.3 16:33:24 10° E 16:35:07 12° NE 16:36:50 10° NNE
Cosmos 2228 2.9 16:31:00 10° S 16:35:13 74° E 16:39:29 10° NNE
Cosmos 1867 4.0 16:30:03 10° NNW 16:35:13 41° NE 16:40:22 10° ESE
Landsat 7 4.3 16:32:08 10° SE 16:36:23 37° ENE 16:40:39 10° N
SAR-Lupe-4 4.5 16:33:38 10° SE 16:36:40 27° ENE 16:39:44 10° N
Cosmos 2297 Rocket 2.2 16:33:53 10° NNW 16:39:31 61° ENE 16:45:07 10° SE
USA 290 2.7 16:36:36 10° N 16:39:42 39° ENE 16:42:47 10° SE
USA 215 3.7 16:35:51 10° ENE 16:42:05 48° N 16:48:19 10° WNW
Cosmos 773 Rocket 3.9 16:37:43 10° NNW 16:42:57 74° ENE 16:48:11 10° SSE
Cosmos 1782 2.7 16:42:12 10° S 16:45:41 49° E 16:49:10 10° NNE
ATLAS CENTAUR R/B 0.7 16:43:12 10° NW 16:46:29 87° SW 16:49:38 10° SE
CZ-4C R/B 2.9 16:40:34 10° NW 16:47:11 64° NE 16:55:31 10° ESE
Cosmos 1607 3.9 16:42:22 10° NW 16:48:37 72° NE 16:54:53 10° SE
Cosmos 1733 0.7 16:48:02 10° N 16:49:38 67° E 16:51:12 10° SSE
CZ-2D R/B 3.3 16:49:18 10° SE 16:52:09 33° ENE 16:55:03 10° N
Lacrosse 4 Rocket 2.7 16:51:07 10° WSW 16:54:47 32° NW 16:58:26 10° NNE
IRS-P3 4.5 16:50:17 10° SE 16:55:15 42° ENE 17:00:14 10° N
Cosmos 2219 4.4 16:51:24 10° N 16:55:50 22° NE 16:59:37 12° E
Cosmos 1825 Rocket 4.3 16:52:44 10° N 16:56:34 29° ENE 17:00:21 10° SE
ARIANE 5 R/B 2.5 16:51:58 10° SSE 16:56:55 57° ENE 17:01:57 10° N
Iridium 51 4.4 16:54:23 10° SSW 16:57:27 55° W 17:00:37 10° N
Cosmos 1315 Rocket 3.8 16:55:06 10° SSW 16:58:47 45° WNW 17:02:29 10° N
Cosmos 1758 Rocket 3.5 16:54:37 10° N 16:58:57 89° ENE 17:03:15 10° S
Cosmos 2266 Rocket 4.0 16:52:59 10° N 16:59:03 55° ENE 17:05:00 10° SSE
Cosmos 2098 Rocket 3.0 16:58:03 10° S 17:02:04 66° E 17:06:52 10° NNE
Cosmos 2208 Rocket 4.1 16:57:27 10° NNW 17:02:38 79° WSW 17:07:48 10° SSE
Cosmos 2151 2.9 17:00:11 10° N 17:04:19 62° ENE 17:08:26 10° SSE
Cosmos 1743 2.1 17:01:45 10° N 17:05:01 78° E 17:08:15 10° SSE
Cosmos 1980 Rocket 3.7 17:03:40 10° SE 17:06:55 16° E 17:08:01 15° E
SPOT 1/Viking Rocket 4.1 17:02:15 10° SE 17:06:58 36° ENE 17:11:42 10° N
Cosmos 1844 Rocket 4.4 17:07:13 10° N 17:09:54 13° NNE 17:10:59 13° NE
SL-16 R/B 2.9 17:09:41 10° NNE 17:15:52 66° WNW 17:21:59 10° SSW
Cosmos 2263 Rocket 2.7 17:12:32 10° NNW 17:17:45 36° NE 17:22:59 10° ESE
NOSS 3-2 (C) 3.3 17:13:58 10° SSW 17:18:53 56° ESE 17:23:02 19° NE
NOSS 3-2 (A) 3.4 17:13:50 10° SW 17:18:55 71° NW 17:24:04 15° NE
CORIOLIS 4.4 17:14:44 10° S 17:20:03 72° WSW 17:25:25 10° NNW
Cosmos 783 Rocket 4.4 17:18:24 10° NNW 17:23:44 77° ENE 17:29:02 10° SSE
MOS 1 Rocket 3.4 17:19:16 10° SSE 17:24:07 71° ENE 17:29:16 10° N
GEOS 3 Rocket 3.7 17:19:36 15° NE 17:24:08 84° NW 17:29:31 10° SW
BREEZE M DEB (TANK) 2.8 17:22:52 10° SW 17:25:00 28° SSE 17:25:20 27° SE
Cosmos 1076 Rocket 4.0 17:21:59 10° N 17:26:00 36° ENE 17:29:59 10° SE
AQUARIUS 4.0 17:22:43 10° SSE 17:27:07 79° ENE 17:31:33 10° NNW
Cosmos 1933 3.3 17:24:30 10° S 17:28:13 52° E 17:30:45 19° NNE
SJ-12 3.7 17:26:15 10° SSE 17:30:01 82° WSW 17:33:50 10° NNW
Cosmos 2084 Rocket 3.4 17:26:16 10° NW 17:30:30 82° SW 17:34:41 10° SE
Cosmos 2227 Rocket 2.1 17:25:05 10° NNW 17:30:44 67° ENE 17:36:21 10° SE
Cosmos 1538 Rocket 4.4 17:26:44 10° NNW 17:31:41 39° ENE 17:36:28 11° SE
Cosmos 1606 Rocket 3.6 17:27:25 10° S 17:31:42 54° E 17:35:23 14° NNE
BlueWalker 3 4.2 17:29:02 10° W 17:31:56 23° SW 17:34:49 10° SSE
Cosmos 2360 4.2 17:26:42 10° SSW 17:32:26 85° WNW 17:37:25 14° NNE
Cosmos 1900 4.3 17:28:06 10° NW 17:33:11 89° WSW 17:38:09 10° SE
Cosmos 2369 Rocket 4.4 17:32:04 10° WNW 17:35:33 16° NNW 17:39:04 10° N
PSLV R/B 4.0 17:36:04 31° E 17:36:52 34° ENE 17:40:33 10° N
CZ-2D R/B 3.6 17:33:34 10° SE 17:37:36 48° ENE 17:41:36 10° N
COSMO-SKYMED 1 3.4 17:39:14 28° ESE 17:39:14 28° ESE 17:42:19 10° SSE
NOSS 2-2 (D) 3.8 17:35:51 10° WSW 17:38:52 38° NW 17:40:03 26° N
SL-19 R/B 4.4 17:36:16 10° SE 17:41:24 47° ENE 17:46:48 10° N
Resurs 1-3 3.8 17:37:34 10° SE 17:41:38 43° ENE 17:45:43 10° N
Cosmos 1503 Rocket 3.9 17:36:51 10° SSW 17:42:07 86° ESE 17:46:10 17° NNE
BREEZE-M DEB (TANK) 3.6 17:39:31 10° W 17:42:46 86° S 17:48:33 21° E
Cosmos 1697 Rocket 2.6 17:42:01 10° SSW 17:47:33 65° ESE 17:50:44 26° NE
Lacrosse 5 rocket 2.3 17:45:58 10° WNW 17:49:16 29° NNW 17:49:58 27° N
Okean 1-7 Rocket 3.9 17:44:58 10° NNW 17:49:20 65° W 17:53:38 10° S
Cosmos 1354 Rocket 3.9 17:45:07 10° SSW 17:50:22 73° ESE 17:53:34 24° NNE
BREEZE-M DEB (TANK) 3.9 17:48:36 10° WNW 17:52:01 68° N 17:57:03 27° E
Cosmos 1461 2.6 17:49:17 10° SW 17:53:11 86° NW 17:54:18 46° NE
NOSS 2-2 (E) 3.9 17:50:47 10° WSW 17:53:46 35° NW 17:54:25 31° N
Spot 4 Rocket 3.9 17:50:20 10° SSE 17:55:23 66° ENE 18:00:28 10° N
IRAS Rocket 4.2 17:51:15 10° SE 17:56:37 60° ENE 18:02:00 10° N
Cosmos 1726 Rocket 3.5 17:52:20 10° S 17:56:58 73° E 17:59:49 23° NNE
Cosmos 1655 Rocket 3.9 17:54:08 10° N 18:00:26 83° E 18:06:39 10° S
Cosmos 1777 Rocket 4.5 17:56:05 10° SW 18:01:16 60° WNW 18:05:19 17° NNE
SKYMED 2 3.4 17:59:36 35° NNE 18:01:22 72° ESE 18:05:42 10° S
Gbstr 26 Del rocket 3.1 17:58:47 10° SW 18:02:35 45° SSE 18:02:38 45° SSE
NOAA 15 4.5 18:00:38 10° SSE 18:05:56 83° ENE 18:11:15 10° NNW
Meteor 2-10 4.0 18:02:19 10° N 18:07:38 66° ENE 18:13:06 10° SSE
CENTAUR R/B 3.8 18:02:38 10° W 18:08:21 34° NNW 18:12:28 21° NNE
Meteor 2-20 Rocket 4.5 18:03:28 10° SSE 18:09:31 53° E 18:12:30 29° NNE
YAOGAN 1 2.4 18:06:01 10° SSE 18:10:16 84° ENE 18:14:34 10° NNW
NOSS 2-3 (C) 4.4 18:10:49 10° SSW 18:12:45 28° S 18:12:45 28° S
USA 281 4.4 18:17:15 23° NNE 18:17:15 23° NNE 18:21:22 10° N
Cosmos 2082 3.8 18:11:07 10° NNW 18:16:42 52° NE 18:17:04 51° ENE
Meteor 1-26 Rocket 4.2 18:13:16 10° S 18:18:03 51° ESE 18:18:03 51° ESE
USA 238 DEB 3.6 18:13:09 10° SSW 18:19:00 51° ESE 18:19:57 47° E
USA 238 3.7 18:13:15 10° SSW 18:19:07 51° ESE 18:20:02 47° E
Resurs 01 Rocket 4.1 18:25:01 11° N 18:25:01 11° N 18:25:07 10° N
Cosmos 2297 Rocket 4.4 18:18:33 10° NW 18:23:08 26° WSW 18:27:43 10° SSW
Cosmos 1953 Rocket 3.9 18:19:14 10° NNW 18:23:39 67° W 18:28:03 10° S
USA 215 3.4 18:22:49 44° ENE 18:24:32 55° NNE 18:30:54 10° WNW
Cosmos 372 Rocket 4.2 18:22:15 10° S 18:26:26 50° SE 18:26:26 50° SE
Cosmos-2242 4.5 18:23:16 10° S 18:25:06 25° S 18:25:06 25° S
Aureole 1 Rocket 3.7 18:24:04 10° S 18:27:16 48° SSE 18:27:16 48° SSE
CZ-4C R/B 4.0 18:28:51 10° NW 18:35:36 44° WSW 18:43:41 10° S
USA 81 4.2 18:31:59 10° N 18:37:15 71° W 18:42:29 10° S
Cosmos 990 Rocket 4.5 18:33:00 10° SW 18:38:02 57° WNW 18:39:47 38° N
NOAA 6 4.1 18:35:33 10° S 18:40:39 76° WSW 18:45:47 10° NNW
Cosmos 2219 3.1 18:35:01 10° NNW 18:40:48 87° ENE 18:41:35 68° SE
Cosmos 1980 Rocket 2.1 18:44:24 10° SSW 18:49:48 82° S 18:49:48 82° S
Cosmos 2058 Rocket 4.2 18:48:59 10° SSW 18:51:54 39° SW 18:51:54 39° SW
Nadezhda 2 Rocket 4.4 18:48:33 10° NNW 18:54:42 80° W 19:00:47 10° S
Cosmos 1844 Rocket 4.1 18:50:01 10° NNW 18:52:38 26° N 18:52:38 26° N
Cosmos 2263 Rocket 3.0 18:56:24 10° NW 19:01:50 48° WSW 19:04:58 24° S
Cosmos 1553 Rocket 3.9 19:00:24 10° SSW 19:06:34 80° W 19:06:49 78° NW
NOSS 3-2 (C) 4.2 19:04:55 10° W 19:09:57 40° NNW 19:10:27 39° NNW
Cosmos 2227 Rocket 4.4 19:09:55 10° NW 19:14:16 23° WSW 19:18:36 10° SSW
Cosmos 1697 Rocket 4.3 19:27:07 10° WSW 19:31:57 29° NW 19:32:28 28° NW
CENTAUR R/B 4.3 19:55:01 10° NW 19:59:34 28° NNW 19:59:34 28° NNW
USA 215 4.4 20:10:10 38° WNW 20:10:10 38° WNW 20:13:59 10° WNW
